HKE133 VHHH-RCKH

Flight info

Callsign HKE133
Flight time 1h 1m
Altitude 35000
Route DALOL V631 ENVAR M750 DADON G581 PORCH PORCH1A
Aircraft A321/M-SDE3FGHIRWY/LB1

Departure

Time 2026-04-14 09:35
Airport Hong Kong International Airport (VHHH)

Arrival

Time 2026-04-14 10:37
Airport Kaohsiung International Airport (RCKH)
Time Latitude Longitude Altitude Speed Heading
2026-04-14 08:53 22.30952 113.91882 37 ft 0 kts 251°
2026-04-14 09:03 22.30952 113.91883 37 ft 0 kts 251°
2026-04-14 09:20 22.30952 113.91884 37 ft 0 kts 251°
2026-04-14 09:23 22.30957 113.91898 37 ft 4 kts 251°
2026-04-14 09:23 22.30966 113.91926 36 ft 4 kts 251°
2026-04-14 09:23 22.30975 113.91952 35 ft 4 kts 230°
2026-04-14 09:24 22.30993 113.91963 36 ft 4 kts 171°
2026-04-14 09:24 22.31013 113.91958 37 ft 4 kts 160°
2026-04-14 09:24 22.31039 113.91948 35 ft 4 kts 160°
2026-04-14 09:24 22.31064 113.91938 35 ft 4 kts 160°
2026-04-14 09:25 22.31090 113.91929 37 ft 4 kts 160°
2026-04-14 09:25 22.31115 113.91919 37 ft 3 kts 160°
2026-04-14 09:25 22.31119 113.91918 37 ft 2 kts 160°
2026-04-14 09:29 22.31116 113.91919 37 ft 2 kts 160°
2026-04-14 09:29 22.31080 113.91932 35 ft 9 kts 161°
2026-04-14 09:29 22.31000 113.91962 36 ft 14 kts 161°
2026-04-14 09:29 22.30906 113.91998 37 ft 15 kts 161°
2026-04-14 09:30 22.30823 113.92029 37 ft 10 kts 160°
2026-04-14 09:30 22.30780 113.92070 37 ft 9 kts 103°
2026-04-14 09:30 22.30780 113.92130 37 ft 8 kts 122°
2026-04-14 09:30 22.30731 113.92156 37 ft 8 kts 161°
2026-04-14 09:31 22.30683 113.92191 37 ft 9 kts 112°
2026-04-14 09:31 22.30698 113.92269 37 ft 13 kts 71°
2026-04-14 09:31 22.30734 113.92381 37 ft 18 kts 71°
2026-04-14 09:31 22.30780 113.92522 37 ft 21 kts 71°
2026-04-14 09:32 22.30828 113.92671 37 ft 21 kts 70°
2026-04-14 09:32 22.30878 113.92825 36 ft 22 kts 71°
2026-04-14 09:32 22.30950 113.93110 37 ft 17 kts 98°
2026-04-14 09:33 22.30890 113.93205 37 ft 13 kts 147°
2026-04-14 09:33 22.30817 113.93237 36 ft 12 kts 161°
2026-04-14 09:33 22.30752 113.93261 35 ft 5 kts 165°
2026-04-14 09:33 22.30730 113.93234 35 ft 3 kts 252°
2026-04-14 09:34 22.30728 113.93227 35 ft 5 kts 252°
2026-04-14 09:34 22.30648 113.92979 34 ft 71 kts 251°
2026-04-14 09:34 22.30410 113.92242 40 ft 134 kts 251°
2026-04-14 09:35 22.30051 113.91117 90 ft 177 kts 247°
2026-04-14 09:35 22.29642 113.89843 639 ft 182 kts 246°
2026-04-14 09:35 22.29227 113.88525 1268 ft 188 kts 246°
2026-04-14 09:35 22.28798 113.87177 1895 ft 192 kts 246°
2026-04-14 09:36 22.28172 113.85868 2210 ft 201 kts 232°
2026-04-14 09:36 22.27372 113.84633 2682 ft 205 kts 233°
2026-04-14 09:36 22.26549 113.83343 3234 ft 207 kts 233°
2026-04-14 09:36 22.25646 113.82157 3728 ft 209 kts 219°
2026-04-14 09:37 22.24355 113.81401 4034 ft 222 kts 196°
2026-04-14 09:37 22.22730 113.81228 4175 ft 248 kts 183°
2026-04-14 09:37 22.20955 113.81223 4637 ft 261 kts 174°
2026-04-14 09:37 22.19228 113.81889 5221 ft 271 kts 149°
2026-04-14 09:38 22.17828 113.83306 5831 ft 280 kts 135°
2026-04-14 09:38 22.16535 113.84902 6449 ft 286 kts 129°
2026-04-14 09:38 22.15612 113.86834 7012 ft 294 kts 114°
2026-04-14 09:38 22.14953 113.88933 7618 ft 298 kts 108°
2026-04-14 09:39 22.14410 113.91105 8223 ft 302 kts 106°
2026-04-14 09:39 22.13891 113.93315 8841 ft 305 kts 105°
2026-04-14 09:39 22.13377 113.95553 9450 ft 308 kts 104°
2026-04-14 09:39 22.12861 113.97807 10031 ft 311 kts 104°
2026-04-14 09:40 22.12332 114.00098 10237 ft 329 kts 105°
2026-04-14 09:40 22.11756 114.02565 10360 ft 348 kts 105°
2026-04-14 09:40 22.11145 114.05154 10597 ft 361 kts 105°
2026-04-14 09:40 22.10518 114.07801 11046 ft 366 kts 105°
2026-04-14 09:41 22.09886 114.10479 11523 ft 370 kts 105°
2026-04-14 09:41 22.09248 114.13181 12017 ft 374 kts 105°
2026-04-14 09:41 22.08602 114.15915 12494 ft 378 kts 105°
2026-04-14 09:41 22.07951 114.18680 12965 ft 382 kts 106°
2026-04-14 09:42 22.07293 114.21464 13442 ft 385 kts 106°
2026-04-14 09:42 22.06626 114.24275 13875 ft 389 kts 106°
2026-04-14 09:42 22.05955 114.27108 14295 ft 392 kts 106°
2026-04-14 09:42 22.05276 114.29975 14738 ft 394 kts 106°
2026-04-14 09:43 22.04600 114.32812 15165 ft 397 kts 106°
2026-04-14 09:43 22.03911 114.35698 15601 ft 399 kts 106°
2026-04-14 09:43 22.03217 114.38604 16035 ft 401 kts 106°
2026-04-14 09:43 22.02520 114.41526 16463 ft 403 kts 106°
2026-04-14 09:44 22.01818 114.44464 16880 ft 406 kts 105°
2026-04-14 09:44 22.01110 114.47419 17291 ft 408 kts 105°
2026-04-14 09:44 22.00400 114.50388 17707 ft 410 kts 105°
2026-04-14 09:44 21.99688 114.53373 18124 ft 412 kts 105°
2026-04-14 09:45 21.98972 114.56374 18485 ft 415 kts 105°
2026-04-14 09:45 21.98251 114.59388 18841 ft 417 kts 105°
2026-04-14 09:45 21.97522 114.62422 19189 ft 419 kts 105°
2026-04-14 09:45 21.96792 114.65465 19538 ft 421 kts 105°
2026-04-14 09:46 21.96057 114.68532 19883 ft 424 kts 105°
2026-04-14 09:46 21.95317 114.71614 20221 ft 426 kts 105°
2026-04-14 09:46 21.94572 114.74708 20550 ft 428 kts 105°
2026-04-14 09:46 21.93822 114.77818 20879 ft 430 kts 105°
2026-04-14 09:47 21.93078 114.80906 21202 ft 433 kts 105°
2026-04-14 09:47 21.92320 114.84049 21522 ft 435 kts 105°
2026-04-14 09:47 21.91559 114.87204 21846 ft 437 kts 105°
2026-04-14 09:47 21.90794 114.90376 22164 ft 439 kts 105°
2026-04-14 09:48 21.90021 114.93567 22472 ft 441 kts 105°
2026-04-14 09:48 21.89245 114.96769 22785 ft 443 kts 105°
2026-04-14 09:48 21.88464 114.99989 23090 ft 445 kts 105°
2026-04-14 09:48 21.87679 115.03222 23391 ft 448 kts 105°
2026-04-14 09:49 21.86888 115.06471 23659 ft 450 kts 105°
2026-04-14 09:49 21.86094 115.09743 23925 ft 452 kts 105°
2026-04-14 09:49 21.85298 115.13023 24192 ft 454 kts 105°
2026-04-14 09:49 21.84496 115.16322 24458 ft 455 kts 105°
2026-04-14 09:50 21.83691 115.19628 24725 ft 457 kts 105°
2026-04-14 09:50 21.82882 115.22941 24982 ft 459 kts 105°
2026-04-14 09:50 21.82071 115.26272 25239 ft 461 kts 106°
2026-04-14 09:50 21.81256 115.29617 25506 ft 463 kts 106°
2026-04-14 09:51 21.80445 115.32929 25761 ft 465 kts 106°
2026-04-14 09:51 21.79621 115.36296 26010 ft 466 kts 106°
2026-04-14 09:51 21.78793 115.39675 26267 ft 468 kts 106°
2026-04-14 09:51 21.77961 115.43068 26516 ft 470 kts 106°
2026-04-14 09:52 21.77124 115.46471 26765 ft 472 kts 106°
2026-04-14 09:52 21.76283 115.49892 27017 ft 474 kts 106°
2026-04-14 09:52 21.75441 115.53321 27260 ft 475 kts 106°
2026-04-14 09:52 21.74642 115.56775 27493 ft 478 kts 102°
2026-04-14 09:53 21.74250 115.60336 27745 ft 481 kts 92°
2026-04-14 09:53 21.74223 115.63940 27980 ft 483 kts 90°
2026-04-14 09:53 21.74209 115.67558 28225 ft 485 kts 91°
2026-04-14 09:53 21.74194 115.71185 28464 ft 486 kts 91°
2026-04-14 09:54 21.74178 115.74837 28698 ft 488 kts 91°
2026-04-14 09:54 21.74161 115.78496 28933 ft 490 kts 91°
2026-04-14 09:54 21.74143 115.82168 29163 ft 492 kts 91°
2026-04-14 09:54 21.74124 115.85856 29395 ft 494 kts 91°
2026-04-14 09:55 21.74105 115.89561 29624 ft 496 kts 91°
2026-04-14 09:55 21.74087 115.93225 29837 ft 497 kts 91°
2026-04-14 09:55 21.74069 115.96949 30040 ft 499 kts 91°
2026-04-14 09:55 21.74048 116.00733 30217 ft 500 kts 91°
2026-04-14 09:56 21.74026 116.04428 30383 ft 501 kts 91°
2026-04-14 09:56 21.73999 116.08182 30551 ft 503 kts 91°
2026-04-14 09:56 21.73970 116.11945 30718 ft 503 kts 91°
2026-04-14 09:56 21.73943 116.15709 30879 ft 504 kts 91°
2026-04-14 09:57 21.73918 116.19493 31061 ft 505 kts 91°
2026-04-14 09:57 21.73893 116.23262 31289 ft 504 kts 91°
2026-04-14 09:57 21.73865 116.27023 31515 ft 503 kts 91°
2026-04-14 09:57 21.73846 116.29514 31662 ft 502 kts 91°
2026-04-14 09:58 21.73820 116.33276 31884 ft 502 kts 91°
2026-04-14 09:58 21.73793 116.37022 32103 ft 501 kts 91°
2026-04-14 09:58 21.73762 116.40764 32322 ft 500 kts 91°
2026-04-14 09:58 21.73731 116.44508 32536 ft 500 kts 91°
2026-04-14 09:59 21.73698 116.48240 32746 ft 499 kts 91°
2026-04-14 09:59 21.73662 116.51975 32880 ft 498 kts 91°
2026-04-14 09:59 21.73629 116.55655 32912 ft 488 kts 91°
2026-04-14 10:00 21.73560 116.62905 32912 ft 483 kts 91°
2026-04-14 10:00 21.73489 116.70128 32913 ft 483 kts 91°
2026-04-14 10:01 21.73647 116.77336 32912 ft 483 kts 82°
2026-04-14 10:01 21.75479 116.84215 32910 ft 482 kts 68°
2026-04-14 10:02 21.77924 116.90917 32914 ft 483 kts 68°
2026-04-14 10:02 21.80359 116.97659 32920 ft 484 kts 68°
2026-04-14 10:03 21.82789 117.04411 32938 ft 484 kts 68°
2026-04-14 10:03 21.85224 117.11167 32934 ft 484 kts 68°
2026-04-14 10:04 21.87661 117.17925 32932 ft 484 kts 68°
2026-04-14 10:04 21.90095 117.24689 32937 ft 484 kts 68°
2026-04-14 10:05 21.92510 117.31407 32931 ft 484 kts 68°
2026-04-14 10:05 21.94927 117.38166 32937 ft 484 kts 68°
2026-04-14 10:06 21.97349 117.44928 32938 ft 484 kts 68°
2026-04-14 10:06 22.00045 117.51545 32939 ft 482 kts 58°
2026-04-14 10:07 22.03549 117.57698 32934 ft 482 kts 57°
2026-04-14 10:07 22.07043 117.63860 32936 ft 482 kts 57°
2026-04-14 10:08 22.10534 117.70024 32935 ft 482 kts 57°
2026-04-14 10:08 22.14030 117.76190 32937 ft 482 kts 57°
2026-04-14 10:09 22.17534 117.82366 32932 ft 482 kts 57°
2026-04-14 10:09 22.20996 117.88500 32938 ft 482 kts 57°
2026-04-14 10:10 22.24461 117.94695 32933 ft 482 kts 61°
2026-04-14 10:10 22.26704 118.01468 32840 ft 474 kts 80°
2026-04-14 10:10 22.27043 118.04971 32469 ft 466 kts 91°
2026-04-14 10:11 22.26806 118.08434 32008 ft 460 kts 98°
2026-04-14 10:11 22.26429 118.11851 31534 ft 457 kts 98°
2026-04-14 10:11 22.26034 118.15255 31064 ft 454 kts 98°
2026-04-14 10:11 22.25634 118.18584 30607 ft 451 kts 99°
2026-04-14 10:12 22.25228 118.21926 30150 ft 448 kts 98°
2026-04-14 10:12 22.24830 118.25249 29651 ft 445 kts 98°
2026-04-14 10:12 22.24445 118.28553 29146 ft 442 kts 98°
2026-04-14 10:12 22.24067 118.31833 28662 ft 438 kts 98°
2026-04-14 10:13 22.23689 118.35098 27809 ft 444 kts 98°
2026-04-14 10:13 22.23301 118.38447 26698 ft 456 kts 98°
2026-04-14 10:13 22.22903 118.41888 25648 ft 466 kts 98°
2026-04-14 10:13 22.22497 118.45365 24928 ft 467 kts 98°
2026-04-14 10:14 22.22090 118.48833 24327 ft 464 kts 98°
2026-04-14 10:14 22.21687 118.52277 23770 ft 460 kts 97°
2026-04-14 10:14 22.21286 118.55692 23172 ft 456 kts 97°
2026-04-14 10:14 22.20889 118.59069 22535 ft 451 kts 97°
2026-04-14 10:15 22.20496 118.62414 21929 ft 447 kts 98°
2026-04-14 10:15 22.20107 118.65728 21333 ft 443 kts 98°
2026-04-14 10:15 22.19725 118.68965 20759 ft 439 kts 98°
2026-04-14 10:15 22.19339 118.72217 20191 ft 435 kts 98°
2026-04-14 10:16 22.18955 118.75437 19643 ft 431 kts 98°
2026-04-14 10:16 22.18574 118.78631 19103 ft 427 kts 98°
2026-04-14 10:16 22.18196 118.81796 18562 ft 424 kts 98°
2026-04-14 10:16 22.17822 118.84936 18000 ft 420 kts 98°
2026-04-14 10:17 22.17454 118.88046 17417 ft 417 kts 98°
2026-04-14 10:17 22.17089 118.91132 16845 ft 412 kts 98°
2026-04-14 10:17 22.16724 118.94184 16278 ft 408 kts 98°
2026-04-14 10:17 22.16361 118.97208 15729 ft 404 kts 98°
2026-04-14 10:18 22.15647 119.03153 14624 ft 396 kts 98°
2026-04-14 10:18 22.15306 119.06085 14083 ft 392 kts 95°
2026-04-14 10:18 22.15452 119.09006 13546 ft 388 kts 78°
2026-04-14 10:19 22.16338 119.11730 12957 ft 384 kts 65°
2026-04-14 10:19 22.17446 119.14338 12366 ft 380 kts 65°
2026-04-14 10:19 22.18538 119.16900 12095 ft 368 kts 64°
2026-04-14 10:19 22.19601 119.19340 11970 ft 352 kts 64°
2026-04-14 10:20 22.20614 119.21644 11850 ft 337 kts 64°
2026-04-14 10:20 22.21600 119.23886 11725 ft 324 kts 64°
2026-04-14 10:20 22.22551 119.26053 11474 ft 316 kts 64°
2026-04-14 10:20 22.23487 119.28192 11131 ft 313 kts 64°
2026-04-14 10:21 22.24412 119.30311 10758 ft 311 kts 64°
2026-04-14 10:21 22.25328 119.32415 10402 ft 308 kts 64°
2026-04-14 10:21 22.26237 119.34509 10044 ft 306 kts 64°
2026-04-14 10:21 22.27140 119.36584 9690 ft 304 kts 64°
2026-04-14 10:22 22.28036 119.38644 9297 ft 302 kts 64°
2026-04-14 10:22 22.28923 119.40685 8921 ft 299 kts 64°
2026-04-14 10:22 22.29805 119.42716 8560 ft 297 kts 64°
2026-04-14 10:22 22.30679 119.44728 8196 ft 295 kts 64°
2026-04-14 10:23 22.31545 119.46726 7831 ft 293 kts 64°
2026-04-14 10:23 22.32405 119.48716 7468 ft 291 kts 64°
2026-04-14 10:23 22.33260 119.50690 7119 ft 289 kts 64°
2026-04-14 10:23 22.34099 119.52623 6792 ft 286 kts 65°
2026-04-14 10:24 22.34938 119.54563 6463 ft 284 kts 65°
2026-04-14 10:24 22.35768 119.56485 6112 ft 281 kts 65°
2026-04-14 10:24 22.36595 119.58399 5723 ft 281 kts 65°
2026-04-14 10:24 22.37421 119.60310 5324 ft 281 kts 64°
2026-04-14 10:25 22.38250 119.62227 4943 ft 281 kts 65°
2026-04-14 10:25 22.39073 119.64134 4575 ft 280 kts 65°
2026-04-14 10:25 22.39897 119.66038 4199 ft 278 kts 65°
2026-04-14 10:25 22.40714 119.67923 3851 ft 277 kts 64°
2026-04-14 10:26 22.41527 119.69802 3500 ft 275 kts 65°
2026-04-14 10:26 22.42321 119.71646 3153 ft 273 kts 65°
2026-04-14 10:26 22.43116 119.73496 3003 ft 271 kts 65°
2026-04-14 10:26 22.43916 119.75353 3013 ft 273 kts 64°
2026-04-14 10:27 22.44717 119.77213 3009 ft 273 kts 65°
2026-04-14 10:27 22.45520 119.79077 3012 ft 274 kts 65°
2026-04-14 10:27 22.46323 119.80945 3012 ft 274 kts 65°
2026-04-14 10:27 22.47123 119.82807 3011 ft 274 kts 64°
2026-04-14 10:28 22.47924 119.84669 3015 ft 273 kts 65°
2026-04-14 10:28 22.48726 119.86533 3012 ft 273 kts 65°
2026-04-14 10:28 22.49530 119.88395 3010 ft 273 kts 65°
2026-04-14 10:28 22.50331 119.90254 3010 ft 273 kts 64°
2026-04-14 10:29 22.51134 119.92117 3012 ft 273 kts 65°
2026-04-14 10:29 22.51933 119.93976 3012 ft 273 kts 65°
2026-04-14 10:29 22.52729 119.95834 3009 ft 272 kts 65°
2026-04-14 10:29 22.53526 119.97692 3009 ft 272 kts 65°
2026-04-14 10:30 22.54320 119.99548 3009 ft 272 kts 65°
2026-04-14 10:30 22.55116 120.01405 3011 ft 272 kts 65°
2026-04-14 10:30 22.55893 120.03216 3006 ft 257 kts 65°
2026-04-14 10:30 22.56616 120.04909 3006 ft 239 kts 65°
2026-04-14 10:31 22.57276 120.06452 3022 ft 219 kts 65°
2026-04-14 10:31 22.57893 120.07889 3023 ft 205 kts 65°
2026-04-14 10:31 22.58336 120.09321 3009 ft 200 kts 82°
2026-04-14 10:31 22.58408 120.10813 3011 ft 198 kts 90°
2026-04-14 10:32 22.58384 120.12294 3009 ft 197 kts 91°
2026-04-14 10:32 22.58344 120.13774 3011 ft 197 kts 92°
2026-04-14 10:32 22.58301 120.15251 3011 ft 196 kts 92°
2026-04-14 10:32 22.58257 120.16730 2913 ft 196 kts 92°
2026-04-14 10:33 22.58215 120.18153 2708 ft 180 kts 92°
2026-04-14 10:33 22.58177 120.19441 2493 ft 164 kts 92°
2026-04-14 10:33 22.58141 120.20651 2292 ft 159 kts 91°
2026-04-14 10:33 22.58106 120.21836 2088 ft 157 kts 92°
2026-04-14 10:34 22.58036 120.24176 1686 ft 156 kts 92°
2026-04-14 10:34 22.58000 120.25348 1491 ft 155 kts 92°
2026-04-14 10:34 22.57965 120.26515 1279 ft 155 kts 91°
2026-04-14 10:35 22.57930 120.27678 1077 ft 154 kts 91°
2026-04-14 10:35 22.57895 120.28837 893 ft 155 kts 92°
2026-04-14 10:35 22.57860 120.30001 713 ft 155 kts 91°
2026-04-14 10:35 22.57826 120.31147 539 ft 154 kts 91°
2026-04-14 10:36 22.57787 120.32302 347 ft 154 kts 90°
2026-04-14 10:36 22.57758 120.33451 105 ft 152 kts 90°
2026-04-14 10:36 22.57722 120.34533 38 ft 125 kts 92°
2026-04-14 10:36 22.57701 120.35237 38 ft 68 kts 91°
2026-04-14 10:37 22.57687 120.35639 38 ft 38 kts 92°
2026-04-14 10:37 22.57681 120.35838 39 ft 14 kts 92°
2026-04-14 10:37 22.57663 120.35906 39 ft 9 kts 140°
2026-04-14 10:37 22.57595 120.35915 39 ft 11 kts 181°
2026-04-14 10:38 22.57526 120.35894 38 ft 11 kts 231°
2026-04-14 10:38 22.57515 120.35811 38 ft 12 kts 272°
2026-04-14 10:38 22.57518 120.35715 38 ft 13 kts 272°
2026-04-14 10:38 22.57521 120.35608 38 ft 15 kts 272°
2026-04-14 10:39 22.57525 120.35477 38 ft 19 kts 272°
2026-04-14 10:39 22.57530 120.35329 38 ft 20 kts 272°
2026-04-14 10:39 22.57535 120.35172 38 ft 21 kts 271°
2026-04-14 10:39 22.57540 120.35008 38 ft 22 kts 272°
2026-04-14 10:40 22.57545 120.34840 38 ft 22 kts 271°
2026-04-14 10:40 22.57549 120.34717 38 ft 9 kts 272°
2026-04-14 10:40 22.57545 120.34649 37 ft 10 kts 248°
2026-04-14 10:40 22.57483 120.34616 38 ft 11 kts 184°
2026-04-14 10:41 22.57413 120.34613 38 ft 6 kts 184°
2026-04-14 10:41 22.57395 120.34573 38 ft 7 kts 270°
2026-04-14 10:41 22.57397 120.34514 38 ft 9 kts 272°
2026-04-14 10:41 22.57400 120.34442 38 ft 10 kts 272°
2026-04-14 10:42 22.57401 120.34358 38 ft 12 kts 270°
2026-04-14 10:42 22.57404 120.34263 38 ft 13 kts 272°
2026-04-14 10:42 22.57407 120.34156 38 ft 15 kts 272°
2026-04-14 10:42 22.57406 120.34081 38 ft 7 kts 253°
2026-04-14 10:43 22.57363 120.34053 37 ft 8 kts 183°
2026-04-14 10:43 22.57299 120.34051 38 ft 8 kts 181°
2026-04-14 10:43 22.57273 120.34055 38 ft 3 kts 146°
2026-04-14 10:43 22.57268 120.34083 38 ft 5 kts 93°
2026-04-14 10:44 22.57267 120.34114 38 ft 2 kts 91°
2026-04-14 10:44 22.57267 120.34123 38 ft 1 kts 91°